<?xml version="1.0"?>
<gpx xmlns="http://www.topografix.com/GPX/1/1" xmlns:xsi="http://www.w3.org/2001/XMLSchema-instance" version="1.1" creator="GPX RubyGem 1.0.0 -- http://dougfales.github.io/gpx/" xsi:schemaLocation="http://www.topografix.com/GPX/1/1 http://www.topografix.com/GPX/1/1/gpx.xsd">
  <metadata>
    <name/>
    <time>2026-05-08T00:50:25+00:00</time>
    <bound minlat="90.0" minlon="180.0" maxlat="-90.0" maxlon="-180.0"/>
  </metadata>
  <trk>
    <name/>
    <trkseg>
      <trkpt lat="46.27433" lon="14.380353">
        <time>1970-01-01T00:00:00+00:00</time>
        <ele>423.0</ele>
      </trkpt>
      <trkpt lat="46.27438" lon="14.380241">
        <time>1970-01-01T00:00:00+00:00</time>
        <ele>423.0</ele>
      </trkpt>
      <trkpt lat="46.274372" lon="14.380204">
        <time>1970-01-01T00:00:00+00:00</time>
        <ele>423.0</ele>
      </trkpt>
      <trkpt lat="46.274401" lon="14.380127">
        <time>1970-01-01T00:00:00+00:00</time>
        <ele>423.0</ele>
      </trkpt>
      <trkpt lat="46.274545" lon="14.380256">
        <time>1970-01-01T00:00:00+00:00</time>
        <ele>425.0</ele>
      </trkpt>
      <trkpt lat="46.27455" lon="14.380232">
        <time>1970-01-01T00:00:00+00:00</time>
        <ele>425.0</ele>
      </trkpt>
      <trkpt lat="46.274598" lon="14.380181">
        <time>1970-01-01T00:00:00+00:00</time>
        <ele>425.0</ele>
      </trkpt>
      <trkpt lat="46.274684" lon="14.380163">
        <time>1970-01-01T00:00:00+00:00</time>
        <ele>425.0</ele>
      </trkpt>
      <trkpt lat="46.274818" lon="14.380228">
        <time>1970-01-01T00:00:00+00:00</time>
        <ele>426.0</ele>
      </trkpt>
      <trkpt lat="46.274782" lon="14.380375">
        <time>1970-01-01T00:00:00+00:00</time>
        <ele>426.0</ele>
      </trkpt>
      <trkpt lat="46.275089" lon="14.380688">
        <time>1970-01-01T00:00:00+00:00</time>
        <ele>427.0</ele>
      </trkpt>
      <trkpt lat="46.275525" lon="14.381318">
        <time>1970-01-01T00:00:00+00:00</time>
        <ele>434.0</ele>
      </trkpt>
      <trkpt lat="46.275673" lon="14.381578">
        <time>1970-01-01T00:00:00+00:00</time>
        <ele>436.0</ele>
      </trkpt>
      <trkpt lat="46.275945" lon="14.382123">
        <time>1970-01-01T00:00:00+00:00</time>
        <ele>436.0</ele>
      </trkpt>
      <trkpt lat="46.276596" lon="14.383227">
        <time>1970-01-01T00:00:00+00:00</time>
        <ele>436.0</ele>
      </trkpt>
      <trkpt lat="46.276643" lon="14.383292">
        <time>1970-01-01T00:00:00+00:00</time>
        <ele>436.0</ele>
      </trkpt>
      <trkpt lat="46.276786" lon="14.383421">
        <time>1970-01-01T00:00:00+00:00</time>
        <ele>434.0</ele>
      </trkpt>
      <trkpt lat="46.276913" lon="14.383473">
        <time>1970-01-01T00:00:00+00:00</time>
        <ele>433.0</ele>
      </trkpt>
      <trkpt lat="46.27698" lon="14.383502">
        <time>1970-01-01T00:00:00+00:00</time>
        <ele>432.0</ele>
      </trkpt>
      <trkpt lat="46.277285" lon="14.383591">
        <time>1970-01-01T00:00:00+00:00</time>
        <ele>431.0</ele>
      </trkpt>
      <trkpt lat="46.277475" lon="14.383428">
        <time>1970-01-01T00:00:00+00:00</time>
        <ele>431.0</ele>
      </trkpt>
      <trkpt lat="46.277831" lon="14.383319">
        <time>1970-01-01T00:00:00+00:00</time>
        <ele>433.0</ele>
      </trkpt>
      <trkpt lat="46.278368" lon="14.383314">
        <time>1970-01-01T00:00:00+00:00</time>
        <ele>435.0</ele>
      </trkpt>
      <trkpt lat="46.278503" lon="14.383288">
        <time>1970-01-01T00:00:00+00:00</time>
        <ele>434.0</ele>
      </trkpt>
      <trkpt lat="46.278805" lon="14.383138">
        <time>1970-01-01T00:00:00+00:00</time>
        <ele>434.0</ele>
      </trkpt>
      <trkpt lat="46.278991" lon="14.383127">
        <time>1970-01-01T00:00:00+00:00</time>
        <ele>437.0</ele>
      </trkpt>
      <trkpt lat="46.279214" lon="14.383167">
        <time>1970-01-01T00:00:00+00:00</time>
        <ele>440.0</ele>
      </trkpt>
      <trkpt lat="46.279497" lon="14.383232">
        <time>1970-01-01T00:00:00+00:00</time>
        <ele>443.0</ele>
      </trkpt>
      <trkpt lat="46.279725" lon="14.383314">
        <time>1970-01-01T00:00:00+00:00</time>
        <ele>443.0</ele>
      </trkpt>
      <trkpt lat="46.280121" lon="14.383296">
        <time>1970-01-01T00:00:00+00:00</time>
        <ele>446.0</ele>
      </trkpt>
      <trkpt lat="46.280466" lon="14.383255">
        <time>1970-01-01T00:00:00+00:00</time>
        <ele>449.0</ele>
      </trkpt>
      <trkpt lat="46.280587" lon="14.383263">
        <time>1970-01-01T00:00:00+00:00</time>
        <ele>449.0</ele>
      </trkpt>
      <trkpt lat="46.280739" lon="14.383402">
        <time>1970-01-01T00:00:00+00:00</time>
        <ele>450.0</ele>
      </trkpt>
      <trkpt lat="46.280937" lon="14.383525">
        <time>1970-01-01T00:00:00+00:00</time>
        <ele>450.0</ele>
      </trkpt>
      <trkpt lat="46.281037" lon="14.383559">
        <time>1970-01-01T00:00:00+00:00</time>
        <ele>450.0</ele>
      </trkpt>
      <trkpt lat="46.281336" lon="14.383556">
        <time>1970-01-01T00:00:00+00:00</time>
        <ele>451.0</ele>
      </trkpt>
      <trkpt lat="46.281419" lon="14.383575">
        <time>1970-01-01T00:00:00+00:00</time>
        <ele>451.0</ele>
      </trkpt>
      <trkpt lat="46.281621" lon="14.383693">
        <time>1970-01-01T00:00:00+00:00</time>
        <ele>451.0</ele>
      </trkpt>
      <trkpt lat="46.281856" lon="14.383941">
        <time>1970-01-01T00:00:00+00:00</time>
        <ele>449.0</ele>
      </trkpt>
      <trkpt lat="46.281987" lon="14.384046">
        <time>1970-01-01T00:00:00+00:00</time>
        <ele>448.0</ele>
      </trkpt>
      <trkpt lat="46.282336" lon="14.384115">
        <time>1970-01-01T00:00:00+00:00</time>
        <ele>449.0</ele>
      </trkpt>
      <trkpt lat="46.282424" lon="14.38418">
        <time>1970-01-01T00:00:00+00:00</time>
        <ele>451.0</ele>
      </trkpt>
      <trkpt lat="46.282507" lon="14.38427">
        <time>1970-01-01T00:00:00+00:00</time>
        <ele>452.0</ele>
      </trkpt>
      <trkpt lat="46.282815" lon="14.384715">
        <time>1970-01-01T00:00:00+00:00</time>
        <ele>453.0</ele>
      </trkpt>
      <trkpt lat="46.282869" lon="14.384849">
        <time>1970-01-01T00:00:00+00:00</time>
        <ele>453.0</ele>
      </trkpt>
      <trkpt lat="46.282859" lon="14.384952">
        <time>1970-01-01T00:00:00+00:00</time>
        <ele>453.0</ele>
      </trkpt>
      <trkpt lat="46.282868" lon="14.385548">
        <time>1970-01-01T00:00:00+00:00</time>
        <ele>453.0</ele>
      </trkpt>
      <trkpt lat="46.282915" lon="14.386036">
        <time>1970-01-01T00:00:00+00:00</time>
        <ele>456.0</ele>
      </trkpt>
      <trkpt lat="46.282969" lon="14.386157">
        <time>1970-01-01T00:00:00+00:00</time>
        <ele>456.0</ele>
      </trkpt>
      <trkpt lat="46.283141" lon="14.386413">
        <time>1970-01-01T00:00:00+00:00</time>
        <ele>457.0</ele>
      </trkpt>
      <trkpt lat="46.283193" lon="14.386564">
        <time>1970-01-01T00:00:00+00:00</time>
        <ele>456.0</ele>
      </trkpt>
      <trkpt lat="46.283239" lon="14.386815">
        <time>1970-01-01T00:00:00+00:00</time>
        <ele>455.0</ele>
      </trkpt>
      <trkpt lat="46.283279" lon="14.386939">
        <time>1970-01-01T00:00:00+00:00</time>
        <ele>454.0</ele>
      </trkpt>
      <trkpt lat="46.283485" lon="14.387266">
        <time>1970-01-01T00:00:00+00:00</time>
        <ele>452.0</ele>
      </trkpt>
      <trkpt lat="46.283596" lon="14.387364">
        <time>1970-01-01T00:00:00+00:00</time>
        <ele>452.0</ele>
      </trkpt>
      <trkpt lat="46.283752" lon="14.387449">
        <time>1970-01-01T00:00:00+00:00</time>
        <ele>452.0</ele>
      </trkpt>
      <trkpt lat="46.284269" lon="14.387549">
        <time>1970-01-01T00:00:00+00:00</time>
        <ele>459.0</ele>
      </trkpt>
      <trkpt lat="46.284357" lon="14.3876">
        <time>1970-01-01T00:00:00+00:00</time>
        <ele>460.0</ele>
      </trkpt>
      <trkpt lat="46.284389" lon="14.387675">
        <time>1970-01-01T00:00:00+00:00</time>
        <ele>460.0</ele>
      </trkpt>
      <trkpt lat="46.284381" lon="14.387759">
        <time>1970-01-01T00:00:00+00:00</time>
        <ele>460.0</ele>
      </trkpt>
      <trkpt lat="46.284343" lon="14.387808">
        <time>1970-01-01T00:00:00+00:00</time>
        <ele>460.0</ele>
      </trkpt>
      <trkpt lat="46.2842" lon="14.387892">
        <time>1970-01-01T00:00:00+00:00</time>
        <ele>459.0</ele>
      </trkpt>
      <trkpt lat="46.283938" lon="14.388099">
        <time>1970-01-01T00:00:00+00:00</time>
        <ele>456.0</ele>
      </trkpt>
      <trkpt lat="46.283641" lon="14.38849">
        <time>1970-01-01T00:00:00+00:00</time>
        <ele>449.0</ele>
      </trkpt>
      <trkpt lat="46.283514" lon="14.388844">
        <time>1970-01-01T00:00:00+00:00</time>
        <ele>447.0</ele>
      </trkpt>
      <trkpt lat="46.283464" lon="14.388939">
        <time>1970-01-01T00:00:00+00:00</time>
        <ele>447.0</ele>
      </trkpt>
      <trkpt lat="46.283407" lon="14.389023">
        <time>1970-01-01T00:00:00+00:00</time>
        <ele>447.0</ele>
      </trkpt>
      <trkpt lat="46.283193" lon="14.389204">
        <time>1970-01-01T00:00:00+00:00</time>
        <ele>446.0</ele>
      </trkpt>
      <trkpt lat="46.283077" lon="14.389256">
        <time>1970-01-01T00:00:00+00:00</time>
        <ele>446.0</ele>
      </trkpt>
      <trkpt lat="46.282881" lon="14.389269">
        <time>1970-01-01T00:00:00+00:00</time>
        <ele>445.0</ele>
      </trkpt>
      <trkpt lat="46.282375" lon="14.389446">
        <time>1970-01-01T00:00:00+00:00</time>
        <ele>439.0</ele>
      </trkpt>
      <trkpt lat="46.282277" lon="14.38979">
        <time>1970-01-01T00:00:00+00:00</time>
        <ele>439.0</ele>
      </trkpt>
      <trkpt lat="46.282246" lon="14.389961">
        <time>1970-01-01T00:00:00+00:00</time>
        <ele>438.0</ele>
      </trkpt>
      <trkpt lat="46.28226" lon="14.390071">
        <time>1970-01-01T00:00:00+00:00</time>
        <ele>439.0</ele>
      </trkpt>
      <trkpt lat="46.282537" lon="14.390623">
        <time>1970-01-01T00:00:00+00:00</time>
        <ele>441.0</ele>
      </trkpt>
      <trkpt lat="46.283351" lon="14.392574">
        <time>1970-01-01T00:00:00+00:00</time>
        <ele>441.0</ele>
      </trkpt>
      <trkpt lat="46.283377" lon="14.392676">
        <time>1970-01-01T00:00:00+00:00</time>
        <ele>441.0</ele>
      </trkpt>
      <trkpt lat="46.283397" lon="14.392899">
        <time>1970-01-01T00:00:00+00:00</time>
        <ele>441.0</ele>
      </trkpt>
      <trkpt lat="46.283433" lon="14.392988">
        <time>1970-01-01T00:00:00+00:00</time>
        <ele>441.0</ele>
      </trkpt>
      <trkpt lat="46.283661" lon="14.393049">
        <time>1970-01-01T00:00:00+00:00</time>
        <ele>443.0</ele>
      </trkpt>
      <trkpt lat="46.28418" lon="14.393087">
        <time>1970-01-01T00:00:00+00:00</time>
        <ele>443.0</ele>
      </trkpt>
      <trkpt lat="46.284464" lon="14.393086">
        <time>1970-01-01T00:00:00+00:00</time>
        <ele>442.0</ele>
      </trkpt>
      <trkpt lat="46.284791" lon="14.393157">
        <time>1970-01-01T00:00:00+00:00</time>
        <ele>442.0</ele>
      </trkpt>
      <trkpt lat="46.285078" lon="14.393102">
        <time>1970-01-01T00:00:00+00:00</time>
        <ele>444.0</ele>
      </trkpt>
      <trkpt lat="46.285185" lon="14.393145">
        <time>1970-01-01T00:00:00+00:00</time>
        <ele>444.0</ele>
      </trkpt>
      <trkpt lat="46.28541" lon="14.39335">
        <time>1970-01-01T00:00:00+00:00</time>
        <ele>441.0</ele>
      </trkpt>
      <trkpt lat="46.285701" lon="14.393526">
        <time>1970-01-01T00:00:00+00:00</time>
        <ele>443.0</ele>
      </trkpt>
      <trkpt lat="46.28591" lon="14.393619">
        <time>1970-01-01T00:00:00+00:00</time>
        <ele>446.0</ele>
      </trkpt>
      <trkpt lat="46.286291" lon="14.393932">
        <time>1970-01-01T00:00:00+00:00</time>
        <ele>450.0</ele>
      </trkpt>
      <trkpt lat="46.286434" lon="14.394099">
        <time>1970-01-01T00:00:00+00:00</time>
        <ele>449.0</ele>
      </trkpt>
      <trkpt lat="46.286783" lon="14.394454">
        <time>1970-01-01T00:00:00+00:00</time>
        <ele>448.0</ele>
      </trkpt>
      <trkpt lat="46.286945" lon="14.394685">
        <time>1970-01-01T00:00:00+00:00</time>
        <ele>447.0</ele>
      </trkpt>
      <trkpt lat="46.286954" lon="14.394694">
        <time>1970-01-01T00:00:00+00:00</time>
        <ele>447.0</ele>
      </trkpt>
      <trkpt lat="46.286954" lon="14.394694">
        <time>1970-01-01T00:00:00+00:00</time>
        <ele>447.0</ele>
      </trkpt>
      <trkpt lat="46.287234" lon="14.394974">
        <time>1970-01-01T00:00:00+00:00</time>
        <ele>449.0</ele>
      </trkpt>
      <trkpt lat="46.28747" lon="14.395185">
        <time>1970-01-01T00:00:00+00:00</time>
        <ele>451.0</ele>
      </trkpt>
      <trkpt lat="46.287656" lon="14.395275">
        <time>1970-01-01T00:00:00+00:00</time>
        <ele>451.0</ele>
      </trkpt>
      <trkpt lat="46.288363" lon="14.39526">
        <time>1970-01-01T00:00:00+00:00</time>
        <ele>458.0</ele>
      </trkpt>
      <trkpt lat="46.288586" lon="14.395308">
        <time>1970-01-01T00:00:00+00:00</time>
        <ele>460.0</ele>
      </trkpt>
      <trkpt lat="46.288956" lon="14.395426">
        <time>1970-01-01T00:00:00+00:00</time>
        <ele>463.0</ele>
      </trkpt>
      <trkpt lat="46.289033" lon="14.395308">
        <time>1970-01-01T00:00:00+00:00</time>
        <ele>464.0</ele>
      </trkpt>
      <trkpt lat="46.289068" lon="14.395225">
        <time>1970-01-01T00:00:00+00:00</time>
        <ele>465.0</ele>
      </trkpt>
      <trkpt lat="46.28908" lon="14.395107">
        <time>1970-01-01T00:00:00+00:00</time>
        <ele>465.0</ele>
      </trkpt>
      <trkpt lat="46.289032" lon="14.394981">
        <time>1970-01-01T00:00:00+00:00</time>
        <ele>465.0</ele>
      </trkpt>
      <trkpt lat="46.288979" lon="14.394902">
        <time>1970-01-01T00:00:00+00:00</time>
        <ele>465.0</ele>
      </trkpt>
      <trkpt lat="46.288882" lon="14.394815">
        <time>1970-01-01T00:00:00+00:00</time>
        <ele>465.0</ele>
      </trkpt>
      <trkpt lat="46.288721" lon="14.394702">
        <time>1970-01-01T00:00:00+00:00</time>
        <ele>465.0</ele>
      </trkpt>
      <trkpt lat="46.288526" lon="14.394472">
        <time>1970-01-01T00:00:00+00:00</time>
        <ele>468.0</ele>
      </trkpt>
      <trkpt lat="46.288387" lon="14.394254">
        <time>1970-01-01T00:00:00+00:00</time>
        <ele>472.0</ele>
      </trkpt>
      <trkpt lat="46.288355" lon="14.394159">
        <time>1970-01-01T00:00:00+00:00</time>
        <ele>473.0</ele>
      </trkpt>
      <trkpt lat="46.288357" lon="14.394017">
        <time>1970-01-01T00:00:00+00:00</time>
        <ele>474.0</ele>
      </trkpt>
      <trkpt lat="46.288423" lon="14.393763">
        <time>1970-01-01T00:00:00+00:00</time>
        <ele>475.0</ele>
      </trkpt>
      <trkpt lat="46.288591" lon="14.393273">
        <time>1970-01-01T00:00:00+00:00</time>
        <ele>476.0</ele>
      </trkpt>
      <trkpt lat="46.288952" lon="14.392401">
        <time>1970-01-01T00:00:00+00:00</time>
        <ele>475.0</ele>
      </trkpt>
      <trkpt lat="46.289039" lon="14.392125">
        <time>1970-01-01T00:00:00+00:00</time>
        <ele>474.0</ele>
      </trkpt>
      <trkpt lat="46.28907" lon="14.391999">
        <time>1970-01-01T00:00:00+00:00</time>
        <ele>474.0</ele>
      </trkpt>
      <trkpt lat="46.289037" lon="14.391789">
        <time>1970-01-01T00:00:00+00:00</time>
        <ele>475.0</ele>
      </trkpt>
      <trkpt lat="46.288887" lon="14.3916">
        <time>1970-01-01T00:00:00+00:00</time>
        <ele>474.0</ele>
      </trkpt>
      <trkpt lat="46.288393" lon="14.391092">
        <time>1970-01-01T00:00:00+00:00</time>
        <ele>473.0</ele>
      </trkpt>
      <trkpt lat="46.288276" lon="14.391007">
        <time>1970-01-01T00:00:00+00:00</time>
        <ele>473.0</ele>
      </trkpt>
      <trkpt lat="46.288166" lon="14.390965">
        <time>1970-01-01T00:00:00+00:00</time>
        <ele>472.0</ele>
      </trkpt>
      <trkpt lat="46.288029" lon="14.390861">
        <time>1970-01-01T00:00:00+00:00</time>
        <ele>469.0</ele>
      </trkpt>
      <trkpt lat="46.287982" lon="14.390802">
        <time>1970-01-01T00:00:00+00:00</time>
        <ele>468.0</ele>
      </trkpt>
      <trkpt lat="46.287789" lon="14.390411">
        <time>1970-01-01T00:00:00+00:00</time>
        <ele>470.0</ele>
      </trkpt>
      <trkpt lat="46.287667" lon="14.390152">
        <time>1970-01-01T00:00:00+00:00</time>
        <ele>472.0</ele>
      </trkpt>
      <trkpt lat="46.287501" lon="14.389704">
        <time>1970-01-01T00:00:00+00:00</time>
        <ele>473.0</ele>
      </trkpt>
      <trkpt lat="46.28741" lon="14.389504">
        <time>1970-01-01T00:00:00+00:00</time>
        <ele>473.0</ele>
      </trkpt>
      <trkpt lat="46.287381" lon="14.389379">
        <time>1970-01-01T00:00:00+00:00</time>
        <ele>473.0</ele>
      </trkpt>
      <trkpt lat="46.287381" lon="14.389149">
        <time>1970-01-01T00:00:00+00:00</time>
        <ele>473.0</ele>
      </trkpt>
      <trkpt lat="46.2874" lon="14.388927">
        <time>1970-01-01T00:00:00+00:00</time>
        <ele>473.0</ele>
      </trkpt>
      <trkpt lat="46.287389" lon="14.388769">
        <time>1970-01-01T00:00:00+00:00</time>
        <ele>473.0</ele>
      </trkpt>
      <trkpt lat="46.287257" lon="14.388064">
        <time>1970-01-01T00:00:00+00:00</time>
        <ele>471.0</ele>
      </trkpt>
      <trkpt lat="46.287199" lon="14.387942">
        <time>1970-01-01T00:00:00+00:00</time>
        <ele>471.0</ele>
      </trkpt>
      <trkpt lat="46.286968" lon="14.387645">
        <time>1970-01-01T00:00:00+00:00</time>
        <ele>470.0</ele>
      </trkpt>
      <trkpt lat="46.286876" lon="14.387365">
        <time>1970-01-01T00:00:00+00:00</time>
        <ele>471.0</ele>
      </trkpt>
      <trkpt lat="46.286778" lon="14.387144">
        <time>1970-01-01T00:00:00+00:00</time>
        <ele>471.0</ele>
      </trkpt>
      <trkpt lat="46.286171" lon="14.386528">
        <time>1970-01-01T00:00:00+00:00</time>
        <ele>467.0</ele>
      </trkpt>
      <trkpt lat="46.285485" lon="14.385887">
        <time>1970-01-01T00:00:00+00:00</time>
        <ele>462.0</ele>
      </trkpt>
      <trkpt lat="46.285197" lon="14.385575">
        <time>1970-01-01T00:00:00+00:00</time>
        <ele>460.0</ele>
      </trkpt>
      <trkpt lat="46.284707" lon="14.385162">
        <time>1970-01-01T00:00:00+00:00</time>
        <ele>457.0</ele>
      </trkpt>
      <trkpt lat="46.284614" lon="14.385089">
        <time>1970-01-01T00:00:00+00:00</time>
        <ele>455.0</ele>
      </trkpt>
      <trkpt lat="46.284383" lon="14.384976">
        <time>1970-01-01T00:00:00+00:00</time>
        <ele>452.0</ele>
      </trkpt>
      <trkpt lat="46.284322" lon="14.384963">
        <time>1970-01-01T00:00:00+00:00</time>
        <ele>452.0</ele>
      </trkpt>
      <trkpt lat="46.284054" lon="14.38499">
        <time>1970-01-01T00:00:00+00:00</time>
        <ele>455.0</ele>
      </trkpt>
      <trkpt lat="46.283654" lon="14.384884">
        <time>1970-01-01T00:00:00+00:00</time>
        <ele>456.0</ele>
      </trkpt>
      <trkpt lat="46.283299" lon="14.384897">
        <time>1970-01-01T00:00:00+00:00</time>
        <ele>455.0</ele>
      </trkpt>
      <trkpt lat="46.283146" lon="14.384885">
        <time>1970-01-01T00:00:00+00:00</time>
        <ele>455.0</ele>
      </trkpt>
      <trkpt lat="46.282964" lon="14.384842">
        <time>1970-01-01T00:00:00+00:00</time>
        <ele>454.0</ele>
      </trkpt>
      <trkpt lat="46.282869" lon="14.384849">
        <time>1970-01-01T00:00:00+00:00</time>
        <ele>453.0</ele>
      </trkpt>
      <trkpt lat="46.282815" lon="14.384715">
        <time>1970-01-01T00:00:00+00:00</time>
        <ele>453.0</ele>
      </trkpt>
      <trkpt lat="46.282507" lon="14.38427">
        <time>1970-01-01T00:00:00+00:00</time>
        <ele>452.0</ele>
      </trkpt>
      <trkpt lat="46.282424" lon="14.38418">
        <time>1970-01-01T00:00:00+00:00</time>
        <ele>451.0</ele>
      </trkpt>
      <trkpt lat="46.282336" lon="14.384115">
        <time>1970-01-01T00:00:00+00:00</time>
        <ele>449.0</ele>
      </trkpt>
      <trkpt lat="46.281987" lon="14.384046">
        <time>1970-01-01T00:00:00+00:00</time>
        <ele>448.0</ele>
      </trkpt>
      <trkpt lat="46.281856" lon="14.383941">
        <time>1970-01-01T00:00:00+00:00</time>
        <ele>449.0</ele>
      </trkpt>
      <trkpt lat="46.281621" lon="14.383693">
        <time>1970-01-01T00:00:00+00:00</time>
        <ele>451.0</ele>
      </trkpt>
      <trkpt lat="46.281419" lon="14.383575">
        <time>1970-01-01T00:00:00+00:00</time>
        <ele>451.0</ele>
      </trkpt>
      <trkpt lat="46.281336" lon="14.383556">
        <time>1970-01-01T00:00:00+00:00</time>
        <ele>451.0</ele>
      </trkpt>
      <trkpt lat="46.281037" lon="14.383559">
        <time>1970-01-01T00:00:00+00:00</time>
        <ele>450.0</ele>
      </trkpt>
      <trkpt lat="46.280937" lon="14.383525">
        <time>1970-01-01T00:00:00+00:00</time>
        <ele>450.0</ele>
      </trkpt>
      <trkpt lat="46.280739" lon="14.383402">
        <time>1970-01-01T00:00:00+00:00</time>
        <ele>450.0</ele>
      </trkpt>
      <trkpt lat="46.280587" lon="14.383263">
        <time>1970-01-01T00:00:00+00:00</time>
        <ele>449.0</ele>
      </trkpt>
      <trkpt lat="46.280466" lon="14.383255">
        <time>1970-01-01T00:00:00+00:00</time>
        <ele>449.0</ele>
      </trkpt>
      <trkpt lat="46.280121" lon="14.383296">
        <time>1970-01-01T00:00:00+00:00</time>
        <ele>446.0</ele>
      </trkpt>
      <trkpt lat="46.279725" lon="14.383314">
        <time>1970-01-01T00:00:00+00:00</time>
        <ele>443.0</ele>
      </trkpt>
      <trkpt lat="46.279497" lon="14.383232">
        <time>1970-01-01T00:00:00+00:00</time>
        <ele>443.0</ele>
      </trkpt>
      <trkpt lat="46.279214" lon="14.383167">
        <time>1970-01-01T00:00:00+00:00</time>
        <ele>440.0</ele>
      </trkpt>
      <trkpt lat="46.278991" lon="14.383127">
        <time>1970-01-01T00:00:00+00:00</time>
        <ele>437.0</ele>
      </trkpt>
      <trkpt lat="46.278805" lon="14.383138">
        <time>1970-01-01T00:00:00+00:00</time>
        <ele>434.0</ele>
      </trkpt>
      <trkpt lat="46.278503" lon="14.383288">
        <time>1970-01-01T00:00:00+00:00</time>
        <ele>434.0</ele>
      </trkpt>
      <trkpt lat="46.278368" lon="14.383314">
        <time>1970-01-01T00:00:00+00:00</time>
        <ele>435.0</ele>
      </trkpt>
      <trkpt lat="46.277831" lon="14.383319">
        <time>1970-01-01T00:00:00+00:00</time>
        <ele>433.0</ele>
      </trkpt>
      <trkpt lat="46.277475" lon="14.383428">
        <time>1970-01-01T00:00:00+00:00</time>
        <ele>431.0</ele>
      </trkpt>
      <trkpt lat="46.277285" lon="14.383591">
        <time>1970-01-01T00:00:00+00:00</time>
        <ele>431.0</ele>
      </trkpt>
      <trkpt lat="46.27698" lon="14.383502">
        <time>1970-01-01T00:00:00+00:00</time>
        <ele>432.0</ele>
      </trkpt>
      <trkpt lat="46.276913" lon="14.383473">
        <time>1970-01-01T00:00:00+00:00</time>
        <ele>433.0</ele>
      </trkpt>
      <trkpt lat="46.276786" lon="14.383421">
        <time>1970-01-01T00:00:00+00:00</time>
        <ele>434.0</ele>
      </trkpt>
      <trkpt lat="46.276643" lon="14.383292">
        <time>1970-01-01T00:00:00+00:00</time>
        <ele>436.0</ele>
      </trkpt>
      <trkpt lat="46.276596" lon="14.383227">
        <time>1970-01-01T00:00:00+00:00</time>
        <ele>436.0</ele>
      </trkpt>
      <trkpt lat="46.275945" lon="14.382123">
        <time>1970-01-01T00:00:00+00:00</time>
        <ele>436.0</ele>
      </trkpt>
      <trkpt lat="46.275673" lon="14.381578">
        <time>1970-01-01T00:00:00+00:00</time>
        <ele>436.0</ele>
      </trkpt>
      <trkpt lat="46.275525" lon="14.381318">
        <time>1970-01-01T00:00:00+00:00</time>
        <ele>434.0</ele>
      </trkpt>
      <trkpt lat="46.275089" lon="14.380688">
        <time>1970-01-01T00:00:00+00:00</time>
        <ele>427.0</ele>
      </trkpt>
      <trkpt lat="46.274782" lon="14.380375">
        <time>1970-01-01T00:00:00+00:00</time>
        <ele>426.0</ele>
      </trkpt>
      <trkpt lat="46.274818" lon="14.380228">
        <time>1970-01-01T00:00:00+00:00</time>
        <ele>426.0</ele>
      </trkpt>
      <trkpt lat="46.274684" lon="14.380163">
        <time>1970-01-01T00:00:00+00:00</time>
        <ele>425.0</ele>
      </trkpt>
      <trkpt lat="46.274598" lon="14.380181">
        <time>1970-01-01T00:00:00+00:00</time>
        <ele>425.0</ele>
      </trkpt>
      <trkpt lat="46.27455" lon="14.380232">
        <time>1970-01-01T00:00:00+00:00</time>
        <ele>425.0</ele>
      </trkpt>
      <trkpt lat="46.274545" lon="14.380256">
        <time>1970-01-01T00:00:00+00:00</time>
        <ele>425.0</ele>
      </trkpt>
      <trkpt lat="46.274401" lon="14.380127">
        <time>1970-01-01T00:00:00+00:00</time>
        <ele>423.0</ele>
      </trkpt>
      <trkpt lat="46.274372" lon="14.380204">
        <time>1970-01-01T00:00:00+00:00</time>
        <ele>423.0</ele>
      </trkpt>
      <trkpt lat="46.27438" lon="14.380241">
        <time>1970-01-01T00:00:00+00:00</time>
        <ele>423.0</ele>
      </trkpt>
      <trkpt lat="46.27433" lon="14.380353">
        <time>1970-01-01T00:00:00+00:00</time>
        <ele>423.0</ele>
      </trkpt>
    </trkseg>
  </trk>
</gpx>
